Wind_Speed
18 19 18 18 18 17 17 16 16 15 14 13 12 11 10 10 9 9 9 9 9 8 8 7 7 7 7 8 8 8 8 8 8 7 7 7 7 7 7 7 7 6
20 20 19 18 18 18 18 17 16 15 15 14 13 12 12 11 10 10 10 10 9 8 8 7 6 6 6 6 6 6 6 6 6 6 6 6 6 6 6 6 6 6
22 21 20 19 19 19 18 18 17 16 16 15 14 14 13 12 12 11 10 10 10 9 8 7 6 5 5 5 5 5 5 5 5 6 6 6 6 7 6 6 6 6
24 22 21 21 20 19 18 18 18 17 17 16 16 16 15 14 13 12 12 11 11 9 8 7 6 5 5 4 4 4 4 4 4 5 5 6 7 7 7 6 6 6
25 25 23 22 21 19 19 19 19 19 18 18 17 17 16 15 14 14 13 12 11 10 9 8 7 6 5 4 4 3 3 3 3 4 5 6 7 7 7 6 6 6
26 26 25 23 22 21 20 20 20 20 19 19 18 18 17 16 16 15 14 13 12 11 10 9 8 6 6 5 4 3 3 3 3 4 5 6 7 7 7 7 6 6
26 26 26 25 23 22 22 21 20 20 20 19 19 18 18 18 17 16 15 13 13 11 10 10 9 8 6 6 5 4 4 3 4 4 5 6 6 7 7 7 6 6
26 27 26 25 24 23 22 22 21 21 21 20 19 20 20 19 18 17 16 15 14 13 12 11 10 9 8 7 6 6 5 4 4 5 6 6 6 7 7 7 6 7
26 26 26 25 24 23 23 23 22 22 21 20 20 21 21 20 20 18 17 16 15 14 14 13 12 11 9 8 7 7 6 5 5 5 6 6 7 7 7 7 7 7
27 27 27 26 25 24 24 23 23 22 22 21 22 22 21 21 21 20 18 17 16 16 16 15 14 13 11 9 8 8 7 7 6 6 7 7 7 7 7 7 7 7
30 29 28 27 27 26 25 25 24 23 23 23 23 23 22 22 22 21 20 19 18 18 18 17 16 15 13 11 10 9 8 8 8 8 8 9 9 9 9 9 8 7
32 31 29 29 29 28 28 27 26 25 24 24 24 23 23 23 23 23 22 21 21 20 20 19 18 16 15 13 12 10 9 10 10 10 9 10 10 11 11 11 10 9
31 31 31 31 31 30 30 29 28 27 26 25 25 24 24 24 24 24 23 23 23 22 22 21 20 18 17 15 14 12 11 11 11 12 11 11 12 12 12 12 12 12
29 30 32 33 32 32 31 30 30 29 27 27 26 25 24 25 25 25 25 24 24 24 23 23 21 20 18 17 17 15 14 13 13 13 13 13 13 13 13 13 13 13
28 30 32 33 33 33 32 32 31 30 29 28 27 26 25 26 26 25 25 25 25 25 24 24 23 21 20 20 19 18 17 15 14 13 14 14 13 14 14 14 14 14
28 29 30 32 33 33 34 34 33 32 31 30 29 28 27 26 25 25 25 25 24 25 25 24 24 23 22 22 22 21 20 18 16 15 15 14 14 14 14 14 14 14
28 29 30 31 33 35 35 36 35 34 33 31 30 29 28 27 26 24 24 24 24 24 25 25 25 24 23 23 24 23 22 20 19 17 17 16 15 15 15 15 15 15
31 31 31 32 34 35 37 38 37 36 35 34 32 31 30 29 28 26 25 24 24 24 24 24 25 25 24 24 26 26 24 23 21 20 19 17 17 16 16 16 16 16
34 33 33 34 34 35 36 38 38 38 37 36 35 35 34 32 30 28 27 26 26 25 24 24 25 25 24 24 26 27 26 25 23 22 20 19 18 17 17 17 17 17
37 35 34 34 35 35 35 36 37 38 38 38 38 37 35 34 32 31 30 29 28 26 25 25 25 26 24 25 27 28 28 27 25 23 22 21 20 19 18 18 18 18
35 33 32 32 35 35 35 35 35 36 37 38 37 37 36 35 34 33 32 31 30 29 27 26 26 26 26 25 27 29 29 28 26 24 23 22 22 21 20 20 20 19
35 31 29 30 32 34 35 36 35 35 36 36 36 35 35 34 34 34 34 33 32 31 29 28 27 28 27 27 28 29 30 29 27 25 24 24 24 24 23 22 21 20
40 35 31 30 31 31 33 36 37 37 37 37 36 34 33 33 33 34 35 34 33 33 32 30 30 30 29 29 29 30 30 29 28 27 26 25 25 25 25 24 23 22
43 40 36 35 35 34 33 35 38 40 38 37 37 33 31 31 31 32 34 34 34 34 34 34 34 33 32 31 31 31 31 30 29 28 27 26 26 26 26 26 26 25
45 43 41 40 39 39 38 37 37 38 37 36 36 34 31 29 29 30 31 33 34 35 34 35 36 36 35 34 34 34 33 32 31 29 28 27 27 27 27 27 27 27
48 46 45 44 42 43 43 43 41 39 37 35 34 34 32 29 29 29 29 31 34 35 35 36 36 36 36 36 36 36 35 35 33 31 30 29 29 29 29 29 29 29
Wind_Direction
207 212 214 214 212 209 206 206 206 206 207 208 209 209 210 211 214 219 227 235 240 249 258 262 261 259 255 252 250 245 239 235 235 236 239 240 243 242 241 244 244 236
207 211 212 214 213 210 208 208 208 208 208 209 209 211 214 216 219 223 230 238 245 252 260 265 264 260 252 246 246 243 238 234 233 234 238 240 242 243 243 245 245 239
208 211 212 214 214 211 209 209 210 210 210 210 211 214 218 220 222 226 233 241 248 253 257 261 260 256 246 237 234 236 235 237 236 237 238 241 243 243 243 246 244 240
208 211 211 213 214 212 211 211 212 213 213 212 213 217 221 223 225 229 235 242 249 254 254 254 253 248 240 231 226 223 222 228 234 237 238 238 239 240 241 244 243 238
210 213 212 213 214 213 213 213 213 214 215 215 216 219 223 225 227 231 235 241 248 253 253 252 249 246 243 236 225 215 210 214 222 230 234 234 234 237 239 240 240 238
213 216 216 214 213 213 215 215 215 215 216 217 218 220 223 226 229 232 234 237 243 247 250 251 250 248 247 245 235 222 211 205 210 219 223 224 226 231 234 236 236 235
217 220 221 219 215 214 216 218 218 218 218 219 220 223 225 226 229 232 234 235 238 241 243 246 248 248 249 249 244 235 224 209 206 213 213 213 216 221 227 231 231 231
221 223 225 225 222 219 218 220 220 221 221 221 222 225 227 227 229 231 233 234 235 236 238 240 244 245 246 247 244 238 234 222 212 214 213 209 209 212 216 221 224 225
226 228 229 230 229 227 225 225 224 225 225 224 225 228 229 231 231 231 231 233 233 234 235 237 239 242 243 244 242 238 236 231 223 222 221 215 211 210 209 212 215 217
228 230 232 233 234 234 233 232 231 230 229 228 229 230 232 234 235 234 233 232 233 234 235 236 237 238 240 241 242 239 236 233 229 229 229 224 219 216 212 209 211 214
228 229 232 234 235 235 236 236 237 236 234 232 232 233 234 236 237 237 236 235 234 234 236 237 237 238 239 240 242 240 236 235 233 231 231 229 227 225 220 215 212 213
229 230 232 235 236 237 237 236 237 238 238 237 236 235 236 238 240 240 239 239 238 237 237 238 239 239 239 240 241 241 238 235 233 232 231 231 232 230 228 224 220 217
230 231 233 236 238 239 240 239 238 239 240 241 241 239 239 240 242 243 243 243 242 242 242 242 242 241 242 242 243 242 240 236 234 233 231 231 232 233 231 230 229 226
232 231 233 235 238 241 244 245 244 242 242 244 246 245 243 243 244 244 245 246 247 247 247 247 246 245 245 245 245 244 243 241 238 236 235 234 233 234 234 232 231 232
235 235 235 236 237 239 242 245 247 247 246 246 247 247 247 247 247 248 249 250 251 252 252 252 252 250 249 248 248 246 245 245 244 243 242 240 238 238 238 236 234 234
237 237 238 238 239 240 241 242 245 247 247 246 247 248 250 251 252 253 254 255 256 257 257 258 258 257 255 254 253 251 249 249 248 248 247 247 245 244 243 242 241 239
236 236 236 238 239 240 241 242 243 245 247 248 249 250 252 253 254 255 256 258 260 261 262 263 263 263 261 260 259 258 256 254 252 252 252 252 252 250 249 249 248 246
234 233 232 233 236 238 239 240 241 243 245 247 249 250 251 252 253 254 255 256 258 259 262 264 265 265 264 264 264 264 263 261 258 257 256 257 257 256 254 254 254 253
237 236 234 232 233 236 238 240 240 240 242 243 245 247 249 250 251 252 252 253 253 255 257 259 261 262 263 263 265 267 267 265 264 262 261 261 262 261 259 258 257 257
241 243 245 244 243 242 242 243 243 242 241 241 242 244 246 249 251 252 252 253 254 255 256 257 259 261 261 261 262 265 267 267 267 266 266 266 266 265 263 261 259 258
243 245 249 253 252 250 249 251 251 249 246 244 242 243 245 247 250 252 253 254 255 255 256 258 261 262 262 262 263 264 266 268 268 269 268 268 268 268 266 263 261 260
253 252 253 256 255 250 248 252 254 255 255 253 249 246 246 248 250 253 254 254 255 256 255 256 257 259 261 261 262 264 265 267 269 269 268 268 268 269 268 267 265 263
259 259 260 261 259 252 247 247 248 248 252 255 253 249 246 247 248 251 252 254 255 255 255 255 254 255 256 257 259 261 263 266 267 267 267 267 267 267 268 268 268 265
256 259 260 261 261 257 253 250 246 243 246 250 250 248 248 246 246 248 250 251 252 252 252 253 253 252 252 252 254 256 258 260 262 263 265 265 266 266 266 266 267 266
256 258 260 263 265 262 259 255 249 246 250 252 249 247 249 248 246 247 248 248 250 250 250 251 252 253 252 252 252 253 255 255 256 257 259 261 263 264 264 263 264 265
256 257 259 262 266 266 264 263 259 257 261 264 258 252 251 251 249 248 247 247 248 249 250 251 252 253 254 254 254 254 255 255 254 254 254 255 258 259 260 261 262 263
Height
5948 5950 5951 5953 5954 5955 5956 5957 5958 5960 5961 5962 5963 5964 5965 5965 5966 5967 5968 5969 5970 5970 5971 5971 5971 5972 5972 5972 5973 5973 5973 5974 5974 5974 5975 5975 5976 5976 5976 5977 5977 5977
5947 5949 5950 5952 5953 5954 5955 5957 5958 5959 5960 5962 5963 5964 5964 5965 5966 5966 5967 5968 5969 5969 5970 5970 5970 5971 5971 5972 5972 5972 5973 5973 5973 5974 5974 5975 5975 5976 5976 5977 5977 5977
5946 5948 5949 5951 5952 5953 5954 5956 5957 5958 5960 5961 5962 5963 5964 5964 5965 5966 5966 5967 5968 5968 5969 5969 5969 5970 5971 5971 5971 5972 5972 5972 5973 5973 5974 5974 5975 5975 5976 5977 5977 5977
5945 5946 5948 5949 5951 5952 5954 5955 5956 5957 5958 5960 5961 5962 5963 5964 5964 5965 5966 5966 5966 5967 5968 5968 5969 5969 5970 5970 5971 5971 5971 5972 5972 5973 5973 5974 5974 5975 5975 5976 5977 5978
5943 5945 5946 5948 5950 5952 5953 5954 5955 5956 5957 5959 5960 5961 5962 5963 5963 5964 5965 5965 5966 5966 5967 5968 5968 5969 5969 5969 5970 5970 5971 5971 5972 5972 5973 5973 5974 5974 5975 5976 5976 5977
5943 5944 5945 5947 5949 5950 5951 5952 5954 5955 5956 5957 5959 5960 5961 5962 5962 5963 5964 5964 5965 5966 5966 5967 5968 5968 5969 5969 5969 5969 5970 5971 5971 5972 5972 5973 5973 5974 5974 5975 5976 5977
5942 5943 5945 5946 5948 5949 5950 5951 5953 5954 5955 5956 5957 5958 5959 5960 5961 5962 5963 5963 5964 5965 5966 5966 5967 5967 5968 5968 5969 5969 5970 5970 5971 5972 5972 5973 5973 5974 5974 5974 5975 5976
5942 5943 5944 5946 5947 5948 5949 5950 5952 5953 5954 5955 5956 5957 5958 5959 5960 5961 5962 5962 5963 5964 5964 5965 5966 5967 5967 5968 5968 5969 5969 5970 5971 5971 5972 5973 5973 5973 5974 5974 5975 5975
5941 5942 5943 5945 5947 5948 5949 5949 5950 5952 5953 5954 5955 5956 5957 5958 5959 5960 5961 5961 5962 5963 5963 5964 5965 5965 5966 5967 5968 5968 5969 5970 5970 5971 5972 5972 5973 5973 5974 5974 5974 5975
5939 5940 5942 5943 5945 5947 5948 5948 5949 5950 5952 5953 5954 5955 5956 5957 5957 5959 5959 5960 5961 5961 5962 5963 5964 5964 5965 5966 5967 5968 5969 5969 5970 5970 5971 5972 5972 5973 5973 5974 5974 5974
5936 5938 5939 5941 5943 5944 5946 5947 5948 5949 5951 5952 5953 5954 5955 5956 5956 5957 5958 5959 5959 5960 5961 5962 5963 5963 5964 5965 5966 5967 5968 5968 5969 5970 5970 5971 5972 5972 5973 5973 5974 5974
5933 5936 5937 5939 5940 5942 5943 5945 5946 5948 5949 5950 5951 5953 5954 5955 5955 5956 5957 5958 5958 5959 5960 5960 5961 5962 5963 5964 5965 5966 5967 5967 5968 5969 5969 5970 5971 5972 5972 5973 5973 5974
5931 5933 5935 5937 5938 5940 5941 5943 5945 5946 5947 5948 5950 5951 5953 5953 5954 5955 5956 5956 5957 5958 5959 5959 5960 5961 5962 5963 5964 5965 5965 5966 5967 5967 5968 5969 5970 5971 5972 5972 5973 5973
5930 5931 5933 5934 5936 5938 5939 5941 5943 5944 5946 5947 5948 5950 5951 5952 5953 5953 5954 5955 5956 5957 5958 5959 5959 5960 5961 5962 5962 5963 5964 5965 5965 5966 5967 5968 5969 5970 5970 5971 5972 5972
5927 5929 5930 5932 5934 5935 5937 5939 5940 5942 5944 5945 5947 5948 5949 5950 5951 5952 5953 5954 5955 5956 5957 5958 5959 5959 5960 5960 5961 5961 5962 5963 5964 5965 5966 5967 5967 5968 5969 5970 5970 5971
5924 5925 5927 5930 5931 5933 5934 5935 5937 5939 5940 5942 5944 5946 5947 5949 5950 5951 5952 5953 5954 5955 5956 5957 5958 5959 5959 5960 5960 5960 5961 5962 5963 5964 5964 5965 5966 5967 5968 5968 5969 5969
5920 5921 5923 5925 5927 5929 5930 5931 5933 5935 5937 5939 5941 5943 5944 5946 5948 5950 5951 5952 5953 5954 5955 5956 5957 5958 5959 5959 5959 5959 5960 5961 5962 5962 5963 5964 5965 5966 5966 5967 5968 5968
5914 5916 5918 5920 5922 5923 5924 5926 5928 5931 5933 5935 5937 5939 5941 5943 5945 5947 5949 5950 5951 5952 5953 5954 5955 5956 5957 5958 5958 5958 5959 5960 5961 5962 5962 5963 5964 5964 5965 5966 5966 5967
5911 5912 5914 5915 5917 5919 5919 5920 5923 5926 5928 5930 5932 5934 5936 5939 5942 5944 5946 5947 5948 5949 5951 5952 5952 5953 5955 5956 5956 5956 5957 5959 5960 5961 5961 5962 5963 5963 5964 5964 5965 5965
5908 5912 5914 5916 5917 5918 5918 5919 5920 5921 5923 5926 5928 5930 5932 5935 5938 5940 5942 5944 5945 5947 5948 5949 5950 5951 5953 5954 5954 5954 5955 5956 5958 5959 5960 5961 5961 5962 5962 5963 5963 5964
5904 5909 5913 5915 5916 5918 5919 5920 5920 5920 5920 5922 5924 5927 5929 5932 5934 5936 5938 5941 5943 5944 5946 5947 5948 5948 5950 5951 5952 5951 5952 5953 5955 5957 5958 5959 5960 5960 5960 5960 5961 5961
5900 5905 5909 5911 5912 5914 5917 5918 5920 5921 5920 5920 5921 5923 5926 5928 5930 5932 5935 5937 5939 5941 5942 5944 5945 5945 5946 5948 5949 5949 5949 5951 5953 5954 5956 5957 5957 5958 5958 5958 5959 5959
5896 5901 5905 5907 5907 5909 5910 5912 5914 5916 5917 5918 5919 5919 5921 5923 5926 5928 5930 5932 5935 5936 5938 5939 5940 5941 5942 5943 5944 5945 5946 5948 5950 5951 5952 5954 5955 5955 5955 5956 5956 5956
5893 5896 5900 5902 5903 5904 5905 5906 5908 5910 5912 5914 5915 5916 5917 5918 5921 5923 5925 5928 5929 5931 5932 5934 5935 5936 5937 5938 5939 5940 5941 5943 5945 5947 5949 5950 5951 5952 5953 5953 5953 5953
5890 5892 5894 5897 5898 5899 5900 5901 5903 5906 5908 5909 5911 5913 5913 5913 5916 5918 5920 5922 5924 5925 5927 5929 5930 5931 5933 5934 5935 5935 5937 5938 5940 5942 5944 5946 5947 5948 5949 5950 5950 5951
5885 5888 5890 5892 5894 5895 5896 5896 5898 5902 5905 5906 5907 5909 5910 5910 5912 5914 5916 5918 5919 5921 5923 5925 5926 5927 5929 5931 5932 5932 5933 5934 5935 5937 5939 5941 5942 5943 5945 5946 5947 5948